| time (UTC) | temp F | wind direction | speed MPH | gust MPH | rain 1hr in | rain 24hr in | rain mn in | humidity % | barometer mb |
| 20260905182519 | 75 | 270 | 6.0 | 11.0 | 0.00 | 0.00 | 0.00 | 55 | 1014.6 |
| 20260905182017 | 74 | 276 | 3.0 | 9.0 | 0.00 | 0.00 | 0.00 | 53 | 1014.5 |
| 20260905181539 | 74 | 213 | 6.0 | 9.0 | 0.00 | 0.00 | 0.00 | 53 | 1014.6 |
| 20260905181018 | 73 | 188 | 6.0 | 9.0 | 0.00 | 0.00 | 0.00 | 55 | 1014.6 |
| 20260905180517 | 72 | 228 | 1.0 | 10.0 | 0.00 | 0.00 | 0.00 | 54 | 1014.6 |
| 20260905175519 | 72 | 254 | 3.0 | 8.0 | 0.00 | 0.00 | 0.00 | 58 | 1014.5 |
| 20260905175020 | 72 | 227 | 5.0 | 8.0 | 0.00 | 0.00 | 0.00 | 58 | 1014.5 |
| 20260905174018 | 71 | 249 | 3.0 | 6.0 | 0.00 | 0.00 | 0.00 | 59 | 1014.3 |
| 20260905173520 | 71 | 227 | 3.0 | 6.0 | 0.00 | 0.00 | 0.00 | 59 | 1014.4 |
| 20260905172517 | 70 | 230 | 2.0 | 7.0 | 0.00 | 0.00 | 0.00 | 59 | 1014.3 |
| 20260905172019 | 70 | 237 | 1.0 | 6.0 | 0.00 | 0.00 | 0.00 | 60 | 1014.3 |
| 20260905171018 | 69 | 188 | 2.0 | 7.0 | 0.00 | 0.00 | 0.00 | 63 | 1014.4 |
| 20260905165019 | 67 | 252 | 1.0 | 4.0 | 0.00 | 0.00 | 0.00 | 67 | 1014.3 |
| 20260905164020 | 66 | 0 | 1.0 | 6.0 | 0.00 | 0.00 | 0.00 | 69 | 1014.3 |
| 20260905163521 | 66 | 180 | 1.0 | 6.0 | 0.00 | 0.00 | 0.00 | 69 | 1014.3 |
| 20260905161020 | 63 | 277 | 2.0 | 8.0 | 0.00 | 0.00 | 0.00 | 76 | 1014.3 |
| 20260905160519 | 62 | 220 | 0.0 | 8.0 | 0.00 | 0.00 | 0.00 | 77 | 1014.3 |
| 20260905155520 | 60 | 192 | 3.0 | 6.0 | 0.00 | 0.00 | 0.00 | 81 | 1014.3 |
| 20260905155019 | 59 | 218 | 0.0 | 6.0 | 0.00 | 0.00 | 0.00 | 84 | 1014.4 |
| 20260905154546 | 58 | 0 | 0.0 | 4.0 | 0.00 | 0.00 | 0.00 | 87 | 1014.4 |
| 20260905154018 | 58 | 0 | 0.0 | 0.0 | 0.00 | 0.00 | 0.00 | 88 | 1014.3 |
| 20260905153516 | 57 | 0 | 0.0 | 2.0 | 0.00 | 0.00 | 0.00 | 89 | 1014.3 |
| 20260905152520 | 55 | 0 | 0.0 | 2.0 | 0.00 | 0.00 | 0.00 | 91 | 1014.3 |
| 20260905152020 | 55 | 0 | 0.0 | 2.0 | 0.00 | 0.00 | 0.00 | 92 | 1014.3 |
| 20260905151019 | 53 | 0 | 0.0 | 1.0 | 0.00 | 0.00 | 0.00 | 92 | 1014.3 |
| 20260905150518 | 52 | 0 | 0.0 | 1.0 | 0.00 | 0.00 | 0.00 | 92 | 1014.3 |
| 20260905145521 | 50 | 0 | 0.0 | 1.0 | 0.00 | 0.00 | 0.00 | 91 | 1014.2 |
| 20260905145017 | 50 | 0 | 0.0 | 1.0 | 0.00 | 0.00 | 0.00 | 91 | 1014.3 |
| 20260905142518 | 48 | 0 | 0.0 | 0.0 | 0.00 | 0.00 | 0.00 | 89 | 1014.2 |
| 20260905142017 | 47 | 0 | 0.0 | 0.0 | 0.00 | 0.00 | 0.00 | 88 | 1014.1 |
| 20260905141535 | 47 | 0 | 0.0 | 0.0 | 0.00 | 0.00 | 0.00 | 88 | 1014.1 |
| 20260905141023 | 47 | 0 | 0.0 | 0.0 | 0.00 | 0.00 | 0.00 | 87 | 1014.0 |
| 20260905135520 | 47 | 0 | 0.0 | 0.0 | 0.00 | 0.00 | 0.00 | 87 | 1014.0 |
| 20260905135020 | 48 | 0 | 0.0 | 0.0 | 0.00 | 0.00 | 0.00 | 87 | 1014.0 |
| 20260905134017 | 48 | 0 | 0.0 | 0.0 | 0.00 | 0.00 | 0.00 | 87 | 1013.9 |
| 20260905133523 | 48 | 0 | 0.0 | 0.0 | 0.00 | 0.00 | 0.00 | 87 | 1013.8 |
| 20260905133038 | 48 | 0 | 0.0 | 0.0 | 0.00 | 0.00 | 0.00 | 87 | 1013.9 |
| 20260905132516 | 48 | 0 | 0.0 | 0.0 | 0.00 | 0.00 | 0.00 | 87 | 1013.9 |
| 20260905132017 | 48 | 0 | 0.0 | 0.0 | 0.00 | 0.00 | 0.00 | 87 | 1013.7 |
| 20260905125520 | 49 | 0 | 0.0 | 0.0 | 0.00 | 0.00 | 0.00 | 87 | 1013.6 |
| 20260905125023 | 49 | 0 | 0.0 | 0.0 | 0.00 | 0.00 | 0.00 | 87 | 1013.7 |
| 20260905124017 | 49 | 0 | 0.0 | 0.0 | 0.00 | 0.00 | 0.00 | 86 | 1013.7 |
| 20260905123518 | 49 | 0 | 0.0 | 0.0 | 0.00 | 0.00 | 0.00 | 86 | 1013.6 |
| 20260905122522 | 49 | 0 | 0.0 | 0.0 | 0.00 | 0.00 | 0.00 | 87 | 1013.7 |
| 20260905122016 | 50 | 0 | 0.0 | 0.0 | 0.00 | 0.00 | 0.00 | 87 | 1013.6 |
| 20260905115519 | 50 | 0 | 0.0 | 0.0 | 0.00 | 0.00 | 0.00 | 87 | 1013.8 |
| 20260905115017 | 50 | 0 | 0.0 | 2.0 | 0.00 | 0.00 | 0.00 | 87 | 1013.7 |
| 20260905114018 | 50 | 80 | 1.0 | 3.0 | 0.00 | 0.00 | 0.00 | 87 | 1013.7 |
| 20260905113519 | 50 | 80 | 2.0 | 3.0 | 0.00 | 0.00 | 0.00 | 87 | 1013.7 |
| 20260905112519 | 50 | 91 | 1.0 | 3.0 | 0.00 | 0.00 | 0.00 | 86 | 1013.6 |
| 20260905110519 | 51 | 0 | 0.0 | 3.0 | 0.00 | 0.00 | 0.00 | 86 | 1013.9 |
| 20260905105519 | 51 | 76 | 1.0 | 3.0 | 0.00 | 0.00 | 0.00 | 86 | 1014.0 |
| 20260905105020 | 51 | 0 | 0.0 | 0.0 | 0.00 | 0.00 | 0.00 | 86 | 1014.0 |
| 20260905104016 | 51 | 0 | 0.0 | 0.0 | 0.00 | 0.00 | 0.00 | 85 | 1014.0 |
| 20260905103517 | 51 | 0 | 0.0 | 3.0 | 0.00 | 0.00 | 0.00 | 85 | 1013.9 |
| 20260905102020 | 52 | 80 | 1.0 | 4.0 | 0.00 | 0.00 | 0.00 | 83 | 1014.1 |
| 20260905101019 | 53 | 0 | 0.0 | 0.0 | 0.00 | 0.00 | 0.00 | 83 | 1014.1 |
| 20260905100520 | 53 | 0 | 0.0 | 0.0 | 0.00 | 0.00 | 0.00 | 84 | 1014.1 |
| 20260905095519 | 53 | 0 | 0.0 | 0.0 | 0.00 | 0.00 | 0.00 | 84 | 1014.0 |
| 20260905095020 | 53 | 0 | 0.0 | 0.0 | 0.00 | 0.00 | 0.00 | 84 | 1014.1 |
| 20260905094015 | 54 | 0 | 0.0 | 0.0 | 0.00 | 0.00 | 0.00 | 84 | 1014.1 |
| 20260905093516 | 54 | 0 | 0.0 | 0.0 | 0.00 | 0.00 | 0.00 | 83 | 1014.1 |
| 20260905092019 | 55 | 0 | 0.0 | 0.0 | 0.00 | 0.00 | 0.00 | 82 | 1014.1 |
| 20260905091022 | 55 | 0 | 0.0 | 0.0 | 0.00 | 0.00 | 0.00 | 82 | 1014.2 |
| 20260905090519 | 56 | 0 | 0.0 | 0.0 | 0.00 | 0.00 | 0.00 | 81 | 1014.2 |
| 20260905090037 | 56 | 0 | 0.0 | 0.0 | 0.00 | 0.00 | 0.00 | 79 | 1014.1 |
| 20260905085521 | 56 | 0 | 0.0 | 0.0 | 0.00 | 0.01 | 0.00 | 79 | 1014.2 |
| 20260905085015 | 56 | 0 | 0.0 | 0.0 | 0.00 | 0.01 | 0.00 | 79 | 1014.2 |
| 20260905082519 | 56 | 0 | 0.0 | 1.0 | 0.00 | 0.01 | 0.00 | 78 | 1014.3 |
| 20260905082017 | 56 | 0 | 0.0 | 0.0 | 0.00 | 0.01 | 0.00 | 77 | 1014.3 |
| 20260905081019 | 56 | 0 | 0.0 | 1.0 | 0.00 | 0.01 | 0.00 | 76 | 1014.2 |
| 20260905080517 | 56 | 0 | 0.0 | 1.0 | 0.00 | 0.01 | 0.00 | 76 | 1014.2 |
| 20260905080040 | 57 | 0 | 0.0 | 0.0 | 0.00 | 0.01 | 0.00 | 76 | 1014.2 |
| 20260905075518 | 56 | 0 | 0.0 | 0.0 | 0.00 | 0.02 | 0.00 | 77 | 1014.1 |
| 20260905075021 | 56 | 0 | 0.0 | 0.0 | 0.00 | 0.02 | 0.00 | 76 | 1014.1 |
| 20260905074019 | 57 | 0 | 0.0 | 4.0 | 0.00 | 0.02 | 0.00 | 77 | 1014.1 |
| 20260905073524 | 56 | 169 | 0.0 | 4.0 | 0.00 | 0.02 | 0.00 | 76 | 1014.0 |
| 20260905072520 | 56 | 0 | 0.0 | 0.0 | 0.00 | 0.02 | 0.00 | 77 | 1014.0 |
| 20260905072019 | 57 | 0 | 0.0 | 0.0 | 0.00 | 0.02 | 0.00 | 76 | 1014.1 |
| 20260905071021 | 56 | 0 | 0.0 | 3.0 | 0.00 | 0.02 | 0.00 | 78 | 1014.0 |
| 20260905070520 | 56 | 98 | 1.0 | 3.0 | 0.00 | 0.02 | 0.00 | 78 | 1014.0 |
| 20260905065517 | 56 | 92 | 1.0 | 4.0 | 0.00 | 0.02 | 0.02 | 78 | 1013.9 |
| 20260905065018 | 57 | 102 | 0.0 | 4.0 | 0.00 | 0.02 | 0.02 | 76 | 1013.9 |
| 20260905064537 | 57 | 0 | 0.0 | 3.0 | 0.00 | 0.02 | 0.02 | 78 | 1013.7 |
| 20260905063520 | 56 | 0 | 0.0 | 6.0 | 0.00 | 0.02 | 0.02 | 79 | 1013.8 |
| 20260905062517 | 56 | 98 | 3.0 | 6.0 | 0.00 | 0.02 | 0.02 | 77 | 1013.7 |
| 20260905062020 | 57 | 81 | 2.0 | 5.0 | 0.00 | 0.02 | 0.02 | 74 | 1013.7 |
| 20260905061020 | 59 | 183 | 1.0 | 4.0 | 0.00 | 0.02 | 0.02 | 74 | 1013.6 |
| 20260905060519 | 59 | 217 | 2.0 | 4.0 | 0.00 | 0.02 | 0.02 | 74 | 1013.7 |
| 20260905060039 | 60 | 206 | 2.0 | 5.0 | 0.00 | 0.02 | 0.02 | 74 | 1013.6 |
| 20260905055519 | 60 | 192 | 2.0 | 6.0 | 0.00 | 0.02 | 0.02 | 73 | 1013.7 |
| 20260905055020 | 60 | 222 | 3.0 | 6.0 | 0.00 | 0.02 | 0.02 | 73 | 1013.7 |
| 20260905054535 | 60 | 217 | 4.0 | 7.0 | 0.00 | 0.02 | 0.02 | 72 | 1013.7 |
| 20260905054016 | 60 | 230 | 4.0 | 7.0 | 0.00 | 0.02 | 0.02 | 72 | 1013.7 |
| 20260905052021 | 61 | 221 | 4.0 | 6.0 | 0.00 | 0.02 | 0.02 | 69 | 1013.8 |
| 20260905051019 | 62 | 228 | 3.0 | 8.0 | 0.00 | 0.02 | 0.02 | 69 | 1013.8 |
| 20260905050517 | 62 | 223 | 3.0 | 7.0 | 0.00 | 0.02 | 0.02 | 68 | 1013.8 |
| 20260905045519 | 63 | 223 | 3.0 | 6.0 | 0.00 | 0.02 | 0.02 | 66 | 1013.8 |
| 20260905045019 | 63 | 239 | 3.0 | 8.0 | 0.00 | 0.02 | 0.02 | 66 | 1013.8 |
| 20260905044537 | 63 | 234 | 4.0 | 8.0 | 0.00 | 0.02 | 0.02 | 65 | 1013.8 |
| 20260905044015 | 63 | 232 | 3.0 | 7.0 | 0.00 | 0.02 | 0.02 | 65 | 1013.7 |
| 20260905042020 | 64 | 242 | 3.0 | 6.0 | 0.00 | 0.02 | 0.02 | 63 | 1013.5 |
| 20260905041019 | 65 | 255 | 3.0 | 9.0 | 0.00 | 0.02 | 0.02 | 62 | 1013.4 |
| 20260905040519 | 65 | 242 | 5.0 | 9.0 | 0.00 | 0.02 | 0.02 | 63 | 1013.4 |
| 20260905040035 | 65 | 246 | 5.0 | 8.0 | 0.00 | 0.02 | 0.02 | 63 | 1013.4 |
| 20260905033519 | 66 | 255 | 2.0 | 6.0 | 0.00 | 0.02 | 0.02 | 61 | 1013.3 |
| 20260905032517 | 66 | 258 | 3.0 | 5.0 | 0.00 | 0.02 | 0.02 | 60 | 1013.1 |
| 20260905032023 | 66 | 246 | 2.0 | 6.0 | 0.00 | 0.02 | 0.02 | 59 | 1013.2 |
| 20260905031019 | 67 | 251 | 3.0 | 8.0 | 0.00 | 0.02 | 0.02 | 57 | 1013.0 |
| 20260905030520 | 67 | 264 | 3.0 | 9.0 | 0.00 | 0.02 | 0.02 | 56 | 1013.0 |
| 20260905024020 | 69 | 0 | 0.0 | 0.0 | 0.00 | 0.02 | 0.02 | 46 | 1012.5 |
| 20260905023520 | 69 | 0 | 0.0 | 0.0 | 0.00 | 0.02 | 0.02 | 47 | 1012.6 |
| 20260905022517 | 70 | 0 | 0.0 | 3.0 | 0.00 | 0.02 | 0.02 | 50 | 1012.6 |
| 20260905022019 | 71 | 255 | 1.0 | 4.0 | 0.00 | 0.02 | 0.02 | 48 | 1012.6 |
| 20260905021018 | 72 | 236 | 2.0 | 4.0 | 0.00 | 0.02 | 0.02 | 39 | 1012.7 |
| 20260905020518 | 72 | 225 | 2.0 | 4.0 | 0.00 | 0.02 | 0.02 | 39 | 1012.7 |
| 20260905015023 | 74 | 265 | 3.0 | 7.0 | 0.00 | 0.02 | 0.02 | 36 | 1012.8 |
| 20260905014021 | 74 | 251 | 4.0 | 8.0 | 0.00 | 0.02 | 0.02 | 34 | 1012.8 |
| 20260905013521 | 74 | 250 | 5.0 | 8.0 | 0.00 | 0.02 | 0.02 | 33 | 1012.8 |
| 20260905013045 | 74 | 272 | 4.0 | 7.0 | 0.00 | 0.02 | 0.02 | 33 | 1012.7 |
| 20260905012516 | 75 | 252 | 3.0 | 9.0 | 0.00 | 0.02 | 0.02 | 33 | 1012.6 |
| 20260905012016 | 75 | 254 | 4.0 | 9.0 | 0.00 | 0.02 | 0.02 | 34 | 1012.6 |
| 20260905011612 | 75 | 221 | 3.0 | 8.0 | 0.00 | 0.02 | 0.02 | 32 | 1012.5 |
| 20260905005518 | 76 | 277 | 4.0 | 9.0 | 0.00 | 0.02 | 0.02 | 39 | 1012.6 |
| 20260905005020 | 76 | 245 | 2.0 | 9.0 | 0.00 | 0.02 | 0.02 | 35 | 1012.5 |
| 20260905004019 | 77 | 200 | 5.0 | 9.0 | 0.00 | 0.02 | 0.02 | 36 | 1012.5 |
| 20260905003519 | 76 | 232 | 3.0 | 9.0 | 0.00 | 0.02 | 0.02 | 37 | 1012.4 |
| 20260905003039 | 77 | 268 | 4.0 | 10.0 | 0.00 | 0.02 | 0.02 | 36 | 1012.5 |
| 20260905002518 | 77 | 224 | 7.0 | 10.0 | 0.00 | 0.02 | 0.02 | 37 | 1012.5 |
| 20260905002018 | 76 | 250 | 1.0 | 7.0 | 0.00 | 0.02 | 0.02 | 37 | 1012.5 |
| 20260905001549 | 76 | 209 | 2.0 | 9.0 | 0.00 | 0.02 | 0.02 | 37 | 1012.6 |
| 20260905000519 | 76 | 250 | 3.0 | 11.0 | 0.00 | 0.02 | 0.02 | 38 | 1012.7 |
| 20260904235519 | 78 | 251 | 7.0 | 11.0 | 0.00 | 0.02 | 0.02 | 38 | 1012.7 |
| 20260904235021 | 76 | 202 | 5.0 | 9.0 | 0.00 | 0.02 | 0.02 | 38 | 1012.7 |
| 20260904234017 | 78 | 232 | 7.0 | 10.0 | 0.00 | 0.02 | 0.02 | 38 | 1012.8 |
| 20260904233517 | 77 | 0 | 4.0 | 10.0 | 0.00 | 0.02 | 0.02 | 38 | 1012.9 |
| 20260904232518 | 78 | 257 | 6.0 | 10.0 | 0.00 | 0.02 | 0.02 | 42 | 1012.9 |
| 20260904232019 | 78 | 188 | 5.0 | 10.0 | 0.00 | 0.02 | 0.02 | 40 | 1012.9 |
| 20260904231537 | 77 | 265 | 5.0 | 10.0 | 0.00 | 0.02 | 0.02 | 43 | 1013.0 |
| 20260904231018 | 77 | 279 | 4.0 | 10.0 | 0.00 | 0.02 | 0.02 | 42 | 1012.9 |
| 20260904230517 | 78 | 267 | 3.0 | 10.0 | 0.00 | 0.02 | 0.02 | 40 | 1013.0 |
| 20260904230036 | 79 | 271 | 6.0 | 10.0 | 0.00 | 0.02 | 0.02 | 40 | 1013.1 |
| 20260904225522 | 78 | 229 | 4.0 | 12.0 | 0.00 | 0.02 | 0.02 | 39 | 1013.1 |
| 20260904225019 | 79 | 234 | 8.0 | 12.0 | 0.00 | 0.02 | 0.02 | 38 | 1013.2 |
| 20260904224536 | 78 | 226 | 5.0 | 12.0 | 0.00 | 0.02 | 0.02 | 41 | 1013.1 |
| 20260904224020 | 77 | 291 | 8.0 | 12.0 | 0.00 | 0.02 | 0.02 | 42 | 1013.2 |
| 20260904223520 | 77 | 33 | 6.0 | 11.0 | 0.00 | 0.02 | 0.02 | 44 | 1013.2 |
| 20260904222521 | 79 | 243 | 6.0 | 12.0 | 0.00 | 0.02 | 0.02 | 39 | 1013.2 |
| 20260904222018 | 78 | 240 | 8.0 | 12.0 | 0.00 | 0.02 | 0.02 | 41 | 1013.2 |
| 20260904221017 | 78 | 291 | 1.0 | 14.0 | 0.00 | 0.02 | 0.02 | 41 | 1013.1 |
| 20260904220519 | 79 | 262 | 8.0 | 14.0 | 0.00 | 0.02 | 0.02 | 40 | 1013.2 |
| 20260904220106 | 78 | 288 | 4.0 | 12.0 | 0.00 | 0.02 | 0.02 | 42 | 1013.1 |
| 20260904215518 | 78 | 96 | 7.0 | 12.0 | 0.00 | 0.02 | 0.02 | 40 | 1013.1 |
| 20260904215018 | 78 | 241 | 6.0 | 11.0 | 0.00 | 0.02 | 0.02 | 42 | 1013.1 |
| 20260904214020 | 77 | 244 | 4.0 | 8.0 | 0.00 | 0.02 | 0.02 | 42 | 1013.1 |
| 20260904213520 | 76 | 110 | 1.0 | 10.0 | 0.00 | 0.02 | 0.02 | 43 | 1013.3 |
| 20260904213039 | 78 | 159 | 3.0 | 10.0 | 0.00 | 0.02 | 0.02 | 40 | 1013.3 |
| 20260904212519 | 78 | 178 | 2.0 | 12.0 | 0.00 | 0.02 | 0.02 | 41 | 1013.3 |
| 20260904212016 | 79 | 248 | 6.0 | 13.0 | 0.00 | 0.02 | 0.02 | 41 | 1013.3 |
| 20260904210518 | 78 | 142 | 5.0 | 13.0 | 0.00 | 0.02 | 0.02 | 42 | 1013.3 |
| 20260904205525 | 78 | 243 | 5.0 | 11.0 | 0.00 | 0.02 | 0.02 | 42 | 1013.3 |
| 20260904205017 | 77 | 203 | 4.0 | 9.0 | 0.00 | 0.02 | 0.02 | 43 | 1013.3 |
| 20260904204017 | 76 | 0 | 1.0 | 9.0 | 0.00 | 0.02 | 0.02 | 47 | 1013.2 |
| 20260904203518 | 77 | 160 | 4.0 | 10.0 | 0.00 | 0.02 | 0.02 | 44 | 1013.3 |
| 20260904203037 | 77 | 269 | 4.0 | 10.0 | 0.00 | 0.02 | 0.02 | 44 | 1013.3 |
| 20260904202517 | 76 | 211 | 4.0 | 13.0 | 0.00 | 0.02 | 0.02 | 45 | 1013.3 |
| 20260904200519 | 76 | 227 | 7.0 | 12.0 | 0.00 | 0.02 | 0.02 | 48 | 1013.3 |
| 20260904195521 | 75 | 273 | 3.0 | 8.0 | 0.00 | 0.02 | 0.02 | 50 | 1013.4 |
| 20260904195019 | 72 | 0 | 0.0 | 2.0 | 0.00 | 0.02 | 0.02 | 57 | 1013.5 |
| 20260904194017 | 72 | 0 | 0.0 | 11.0 | 0.00 | 0.02 | 0.02 | 54 | 1013.6 |
| 20260904193516 | 74 | 0 | 2.0 | 12.0 | 0.00 | 0.02 | 0.02 | 52 | 1013.6 |
| 20260904192515 | 74 | 207 | 4.0 | 12.0 | 0.00 | 0.02 | 0.02 | 52 | 1013.7 |
| 20260904185519 | 74 | 205 | 5.0 | 13.0 | 0.00 | 0.02 | 0.02 | 53 | 1013.8 |
| 20260904185017 | 73 | 258 | 4.0 | 11.0 | 0.00 | 0.02 | 0.02 | 55 | 1013.9 |
| 20260904184020 | 72 | 188 | 5.0 | 11.0 | 0.00 | 0.02 | 0.02 | 56 | 1014.0 |
| 20260904183519 | 73 | 225 | 6.0 | 11.0 | 0.00 | 0.02 | 0.02 | 57 | 1013.9 |
| 20260904183040 | 72 | 220 | 5.0 | 10.0 | 0.00 | 0.02 | 0.02 | 58 | 1013.9 |